Location: La Junie
(44.7428°N, 2.1773°E)
Time: 14:41:23
(UTC+00:00)

Cosmos 1980 Rocket - Pass Details

Date: 15 May 2026
Orbit: 827 x 850 km, 71.0° (Epoch: 10 June)

Event Time Altitude Azimuth Distance (km) Brightness Sun altitude
Rises 19:35:35 0° 333° (NNW) 3,424 6.5 -4.3°
Reaches altitude 10° 19:38:03 10° 333° (NNW) 2,484 5.7 -4.7°
Maximum altitude 19:43:46 83° 247° (WSW) 859 2.3 -5.5°
Drops below altitude 10° 19:49:25 10° 160° (SSE) 2,457 4.1 -6.4°
Enters shadow 19:51:20 - 159° (SSE) 3,186 4.7 -6.6°
